Tracking 28790 objects as of 19-Apr-2024
HD Live streaming from Space Station
objects crossing your sky now

SL-14 DEB

Track SL-14 DEB now!
10-day predictions


NORAD ID: 35524
Int'l Code: 1987-068CT
Perigee: 846.6 km
Apogee: 885.9 km
Inclination: 82.5 °
Period: 102.1 minutes
Semi major axis: 7237 km
RCS: 0.005 m2 (small)
Launch date: August 18, 1987
Source: Commonwealth of Independent States (former USSR) (CIS)
Launch site: PLESETSK MISSILE AND SPACE COMPLEX (PKMTR)

Note: This is SATELLITE DEBRIS
Your satellite tracking list
Your tracking list is empty




NASA's NSSDC Master Catalog

Two Line Element Set (TLE):
1 35524U 87068CT  24099.08238865  .00004530  00000-0  25486-2 0  9991
2 35524  82.5092  29.0609 0027157  71.0158 289.3956 14.10067861 68434
Source of the keplerian elements: AFSPC